CAPE
0 0 0 0 0 0 0 0 0 0 0 0 0 0 0 0 0 0 0 0 0 56 223 927 1180 1296 1298 1174 1121 798 675 633 527 335 211 194 189 164 154 404 636 397 186 90 11 1 0 0 0
0 0 0 0 0 0 0 0 0 0 0 0 0 0 0 0 0 0 0 0 0 124 267 871 1031 1283 1262 1195 1047 849 712 696 608 426 318 251 299 217 308 733 591 465 359 162 18 0 0 0 0
0 0 0 0 0 0 0 0 0 0 0 0 0 0 0 0 0 0 0 0 16 117 317 685 927 1162 1210 1336 1309 1113 843 740 686 555 431 451 587 503 284 412 535 435 255 78 2 0 0 0 0
0 0 0 0 0 0 0 0 0 0 0 0 0 0 0 0 0 0 0 0 4 121 322 532 865 1116 1206 1281 1306 1239 1029 949 943 740 582 819 836 506 441 459 425 271 158 35 3 0 0 0 0
0 0 0 0 0 0 0 0 0 0 0 0 0 0 0 0 0 0 0 0 0 23 350 495 765 1048 1154 1215 1230 1208 1147 1061 1082 893 849 1109 767 441 344 353 259 208 7 2 3 0 0 0 0
0 0 0 0 0 0 0 0 0 0 0 0 0 0 0 0 0 0 0 0 0 0 189 371 578 949 1165 1116 1183 1145 1061 997 955 818 915 1054 750 391 158 90 92 10 2 2 3 0 0 0 0
0 0 0 0 0 0 0 0 0 0 0 0 0 0 0 0 0 0 0 0 0 35 171 323 426 680 1009 1136 1124 1083 1003 958 907 750 830 754 727 564 134 0 1 0 0 0 2 0 0 0 0
0 0 0 0 0 0 0 0 0 0 0 0 0 0 0 0 0 0 0 0 0 0 0 135 311 546 804 1014 1078 1066 1009 937 866 696 722 683 717 617 172 0 0 0 0 0 0 0 0 0 0
0 0 0 0 0 0 0 0 0 0 0 0 0 0 0 0 0 0 0 0 0 0 0 0 109 379 600 790 885 939 918 890 763 633 457 472 476 355 92 1 0 0 0 0 0 0 0 0 0
0 0 0 0 0 0 0 0 0 0 0 0 0 0 0 0 0 0 0 0 0 0 0 0 0 55 330 531 602 722 831 751 696 579 338 317 276 211 34 1 0 0 0 0 0 0 0 0 0
0 0 0 0 0 0 0 0 0 0 0 0 0 0 0 0 0 0 0 0 0 0 0 0 0 0 18 267 433 450 566 685 694 555 374 266 238 134 4 1 0 0 0 0 0 0 0 0 0
0 0 0 0 0 0 0 0 0 0 0 0 0 0 0 0 0 0 0 0 0 0 0 0 0 0 0 20 221 307 283 276 273 163 232 237 183 100 4 4 0 0 0 0 0 0 0 0 0
0 0 0 0 0 0 0 0 0 0 0 0 0 0 0 0 0 0 0 0 0 0 0 0 0 0 0 0 8 74 120 124 88 181 163 95 68 17 7 10 6 1 0 0 0 0 0 0 0
0 0 0 0 0 0 0 0 0 0 0 0 0 0 0 0 0 0 0 0 0 0 0 0 0 0 0 0 0 0 8 14 7 15 43 35 28 23 13 2 3 7 0 0 0 0 0 0 0
0 0 0 0 0 0 0 0 0 0 0 0 0 0 0 0 0 0 0 0 0 0 0 0 0 0 0 0 0 0 0 2 3 2 6 11 13 16 19 6 1 5 0 0 0 0 0 0 0
0 0 0 0 0 0 0 0 0 0 0 0 0 0 0 0 0 0 0 0 0 0 0 0 0 0 0 0 0 0 1 1 2 2 1 3 4 2 0 0 0 0 0 0 0 0 0 0 0
0 0 0 0 0 0 0 0 0 0 0 0 0 0 0 0 0 0 0 0 0 0 0 0 0 0 0 0 0 0 0 0 0 0 1 3 2 1 0 0 0 0 0 0 0 0 0 0 0
0 0 0 0 0 0 0 0 0 0 0 0 0 0 0 0 0 0 0 0 0 0 0 0 0 0 0 0 0 0 0 0 0 0 0 0 0 0 0 0 0 0 0 0 0 0 0 0 0
0 0 0 0 0 0 0 0 0 0 0 0 0 0 0 0 0 0 0 0 0 0 0 0 0 0 0 0 0 0 0 0 0 0 0 0 0 0 0 0 0 0 0 0 0 0 0 0 0
0 0 0 0 0 0 0 0 0 0 0 0 0 0 0 0 0 0 0 0 0 0 0 0 0 0 0 0 0 0 0 0 0 0 0 0 0 0 0 0 0 0 0 0 0 0 0 0 0
0 0 0 0 0 0 0 0 0 0 0 0 0 0 0 0 0 0 0 0 0 0 0 0 0 0 0 0 0 0 0 0 0 0 0 0 0 0 0 0 0 0 0 0 0 0 0 0 0
0 0 0 0 0 0 0 0 0 0 0 0 0 0 0 0 0 0 0 0 0 0 0 0 0 0 0 0 0 0 0 0 0 0 0 0 0 0 0 0 0 0 0 0 0 0 0 0 0
0 0 0 0 0 0 0 0 0 0 0 0 0 0 0 0 0 0 0 0 0 0 0 0 0 0 0 0 0 0 0 0 0 0 0 0 0 0 0 0 0 0 0 0 0 0 0 0 0
0 0 0 0 0 0 0 0 0 0 0 0 0 0 0 0 0 0 0 0 0 0 0 0 0 0 0 0 0 0 0 0 0 0 0 0 0 0 0 0 0 0 0 0 0 0 0 0 0
0 0 0 0 0 0 0 0 0 0 0 0 0 0 0 0 0 0 0 0 0 0 0 0 0 0 0 0 0 0 0 0 0 0 0 0 0 0 0 0 0 0 0 0 0 0 0 0 0
0 0 0 0 0 0 0 0 0 0 0 0 0 0 0 0 0 0 0 0 0 0 0 0 0 0 0 0 0 0 0 0 0 0 0 0 0 0 0 0 0 0 0 0 0 0 0 0 0
0 0 0 0 0 0 0 0 0 0 0 0 0 0 0 0 0 0 0 0 0 0 0 0 0 0 0 0 0 0 0 0 0 0 0 0 0 0 0 0 0 0 0 0 0 0 0 0 0
0 0 0 0 0 0 0 0 0 0 0 0 0 0 0 0 0 0 0 0 0 0 0 0 0 0 0 0 0 0 0 0 0 0 0 0 0 0 0 0 0 0 0 0 0 0 0 0 0
0 0 0 0 0 0 0 0 0 0 0 0 0 0 0 0 0 0 0 0 0 0 0 0 0 0 0 0 0 0 0 0 0 0 0 0 0 0 0 0 0 0 0 0 0 0 0 0 0
0 0 0 0 0 0 0 0 0 0 0 0 0 0 0 0 0 0 0 0 0 0 0 0 0 0 0 0 0 0 0 0 0 0 0 0 0 0 0 0 0 0 0 0 0 0 0 0 0
CIN
-0 -0 -0 -0 -0 -0 -0 -0 -0 -0 -0 -0 -0 -0 -0 -0 -0 -0 -0 -0 -0 -439 -347 -133 -58 -24 -11 -17 -24 -53 -61 -63 -71 -91 -110 -110 -105 -105 -86 -16 -0 -4 -28 -46 -135 -21 -0 -0 -0
-0 -0 -0 -0 -0 -0 -0 -0 -0 -0 -0 -0 -0 -0 -0 -0 -0 -0 -0 -0 -49 -420 -337 -151 -94 -42 -32 -32 -38 -52 -59 -54 -55 -72 -83 -93 -78 -87 -40 -1 -1 -1 -2 -28 -99 -0 -0 -0 -0
-0 -0 -0 -0 -0 -0 -0 -0 -0 -0 -0 -0 -0 -0 -0 -0 -0 -0 -0 -0 -562 -441 -334 -201 -123 -65 -47 -22 -24 -38 -53 -57 -54 -57 -64 -49 -17 -21 -46 -9 -2 -1 -12 -77 -60 -0 -0 -0 -0
-0 -0 -0 -0 -0 -0 -0 -0 -0 -0 -0 -0 -0 -0 -0 -0 -0 -0 -0 -0 -570 -443 -343 -231 -130 -64 -40 -31 -24 -22 -30 -30 -22 -32 -38 -1 -0 -14 -5 -4 -6 -27 -62 -155 -1 -0 -0 -0 -0
-0 -0 -0 -0 -0 -0 -0 -0 -0 -0 -0 -0 -0 -0 -0 -0 -0 -0 -0 -0 -0 -442 -325 -250 -147 -71 -32 -15 -12 -13 -12 -9 -1 -3 -0 -0 -0 -15 -15 -19 -37 -58 -5 -1 -0 -0 -0 -0 -0
-0 -0 -0 -0 -0 -0 -0 -0 -0 -0 -0 -0 -0 -0 -0 -0 -0 -0 -0 -0 -0 -0 -380 -297 -209 -97 -31 -11 -2 -2 -3 -3 -2 -7 -2 -0 -2 -25 -105 -133 -117 -82 -0 -0 -0 -0 -0 -0 -0
-0 -0 -0 -0 -0 -0 -0 -0 -0 -0 -0 -0 -0 -0 -0 -0 -0 -0 -0 -0 -0 -546 -398 -306 -246 -154 -76 -38 -18 -3 -2 -2 -3 -9 -3 -2 -0 -10 -121 -0 -21 -0 -0 -0 -0 -0 -0 -0 -0
-0 -0 -0 -0 -0 -0 -0 -0 -0 -0 -0 -0 -0 -0 -0 -0 -0 -0 -0 -0 -0 -0 -0 -405 -308 -195 -87 -30 -12 -7 -5 -2 -3 -13 -4 -3 -1 -13 -84 -8 -0 -0 -0 -0 -0 -0 -0 -0 -0
-0 -0 -0 -0 -0 -0 -0 -0 -0 -0 -0 -0 -0 -0 -0 -0 -0 -0 -0 -0 -0 -0 -0 -0 -391 -249 -162 -91 -48 -24 -14 -6 -10 -19 -36 -31 -35 -50 -103 -46 -0 -0 -0 -0 -0 -0 -0 -0 -0
-0 -0 -0 -0 -0 -0 -0 -0 -0 -0 -0 -0 -0 -0 -0 -0 -0 -0 -0 -0 -0 -0 -0 -0 -0 -289 -241 -151 -110 -59 -24 -22 -17 -33 -73 -67 -81 -104 -177 -37 -0 -0 -0 -0 -0 -0 -0 -0 -0
-0 -0 -0 -0 -0 -0 -0 -0 -0 -0 -0 -0 -0 -0 -0 -0 -0 -0 -0 -0 -0 -0 -0 -0 -0 -0 -362 -239 -151 -117 -67 -24 -20 -36 -46 -64 -80 -128 -43 -46 -0 -0 -0 -0 -0 -0 -0 -0 -0
-0 -0 -0 -0 -0 -0 -0 -0 -0 -0 -0 -0 -0 -0 -0 -0 -0 -0 -0 -0 -0 -0 -0 -0 -0 -0 -0 -346 -207 -151 -137 -111 -93 -124 -100 -80 -91 -127 -29 -45 -23 -0 -0 -0 -0 -0 -0 -0 -0
-0 -0 -0 -0 -0 -0 -0 -0 -0 -0 -0 -0 -0 -0 -0 -0 -0 -0 -0 -0 -0 -0 -0 -0 -0 -0 -0 -0 -100 -211 -153 -135 -137 -103 -101 -136 -142 -145 -33 -38 -52 -21 -0 -0 -0 -0 -0 -0 -0
-0 -0 -0 -0 -0 -0 -0 -0 -0 -0 -0 -0 -0 -0 -0 -0 -0 -0 -0 -0 -0 -0 -0 -0 -0 -0 -0 -0 -0 -0 -211 -170 -70 -64 -151 -171 -153 -170 -39 -53 -50 -62 -0 -0 -0 -0 -0 -0 -0
-0 -0 -0 -0 -0 -0 -0 -0 -0 -0 -0 -0 -0 -0 -0 -0 -0 -0 -0 -0 -0 -0 -0 -0 -0 -0 -0 -0 -0 -0 -0 -0 -0 -0 -32 -35 -29 -33 -38 -52 -64 -54 -6 -0 -0 -0 -0 -0 -0
-0 -0 -0 -0 -0 -0 -0 -0 -0 -0 -0 -0 -0 -0 -0 -0 -0 -0 -0 -0 -0 -0 -0 -0 -0 -0 -0 -0 -0 -0 -0 -0 -0 -0 -0 -58 -41 -61 -17 -0 -0 -0 -0 -0 -0 -0 -0 -0 -0
-0 -0 -0 -0 -0 -0 -0 -0 -0 -0 -0 -0 -0 -0 -0 -0 -0 -0 -0 -0 -0 -0 -0 -0 -0 -0 -0 -0 -0 -0 -0 -0 -0 -0 -0 -0 -0 -0 -0 -0 -0 -0 -0 -0 -0 -0 -0 -0 -0
-0 -0 -0 -0 -0 -0 -0 -0 -0 -0 -0 -0 -0 -0 -0 -0 -0 -0 -0 -0 -0 -0 -0 -0 -0 -0 -0 -0 -0 -0 -0 -0 -0 -0 -0 -0 -0 -0 -0 -0 -0 -0 -0 -0 -0 -0 -0 -0 -0
-0 -0 -0 -0 -0 -0 -0 -0 -0 -0 -0 -0 -0 -0 -0 -0 -0 -0 -0 -0 -0 -0 -0 -0 -0 -0 -0 -0 -0 -0 -0 -0 -0 -0 -0 -0 -0 -0 -0 -0 -0 -0 -0 -0 -0 -0 -0 -0 -0
-0 -0 -0 -0 -0 -0 -0 -0 -0 -0 -0 -0 -0 -0 -0 -0 -0 -0 -0 -0 -0 -0 -0 -0 -0 -0 -0 -0 -0 -0 -0 -0 -0 -0 -0 -0 -0 -0 -0 -0 -0 -0 -0 -0 -0 -0 -0 -0 -0
-0 -0 -0 -0 -0 -0 -0 -0 -0 -0 -0 -0 -0 -0 -0 -0 -0 -0 -0 -0 -0 -0 -0 -0 -0 -0 -0 -0 -0 -0 -0 -0 -0 -0 -0 -0 -0 -0 -0 -0 -0 -0 -0 -0 -0 -0 -0 -0 -0
-0 -0 -0 -0 -0 -0 -0 -0 -0 -0 -0 -0 -0 -0 -0 -0 -0 -0 -0 -0 -0 -0 -0 -0 -0 -0 -0 -0 -0 -0 -0 -0 -0 -0 -0 -0 -0 -0 -0 -0 -0 -0 -0 -0 -0 -0 -0 -0 -0
-0 -0 -0 -0 -0 -0 -0 -0 -0 -0 -0 -0 -0 -0 -0 -0 -0 -0 -0 -0 -0 -0 -0 -0 -0 -0 -0 -0 -0 -0 -0 -0 -0 -0 -0 -0 -0 -0 -0 -0 -0 -0 -0 -0 -0 -0 -0 -0 -0
-0 -0 -0 -0 -0 -0 -0 -0 -0 -0 -0 -0 -0 -0 -0 -0 -0 -0 -0 -0 -0 -0 -0 -0 -0 -0 -0 -0 -0 -0 -0 -0 -0 -0 -0 -0 -0 -0 -0 -0 -0 -0 -0 -0 -0 -0 -0 -0 -0
-0 -0 -0 -0 -0 -0 -0 -0 -0 -0 -0 -0 -0 -0 -0 -0 -0 -0 -0 -0 -0 -0 -0 -0 -0 -0 -0 -0 -0 -0 -0 -0 -0 -0 -0 -0 -0 -0 -0 -0 -0 -0 -0 -0 -0 -0 -0 -0 -0
-0 -0 -0 -0 -0 -0 -0 -0 -0 -0 -0 -0 -0 -0 -0 -0 -0 -0 -0 -0 -0 -0 -0 -0 -0 -0 -0 -0 -0 -0 -0 -0 -0 -0 -0 -0 -0 -0 -0 -0 -0 -0 -0 -0 -0 -0 -0 -0 -0
-0 -0 -0 -0 -0 -0 -0 -0 -0 -0 -0 -0 -0 -0 -0 -0 -0 -0 -0 -0 -0 -0 -0 -0 -0 -0 -0 -0 -0 -0 -0 -0 -0 -0 -0 -0 -0 -0 -0 -0 -0 -0 -0 -0 -0 -0 -0 -0 -0
-0 -0 -0 -0 -0 -0 -0 -0 -0 -0 -0 -0 -0 -0 -0 -0 -0 -0 -0 -0 -0 -0 -0 -0 -0 -0 -0 -0 -0 -0 -0 -0 -0 -0 -0 -0 -0 -0 -0 -0 -0 -0 -0 -0 -0 -0 -0 -0 -0
-0 -0 -0 -0 -0 -0 -0 -0 -0 -0 -0 -0 -0 -0 -0 -0 -0 -0 -0 -0 -0 -0 -0 -0 -0 -0 -0 -0 -0 -0 -0 -0 -0 -0 -0 -0 -0 -0 -0 -0 -0 -0 -0 -0 -0 -0 -0 -0 -0
-0 -0 -0 -0 -0 -0 -0 -0 -0 -0 -0 -0 -0 -0 -0 -0 -0 -0 -0 -0 -0 -0 -0 -0 -0 -0 -0 -0 -0 -0 -0 -0 -0 -0 -0 -0 -0 -0 -0 -0 -0 -0 -0 -0 -0 -0 -0 -0 -0
Wind_Speed
12 14 18 18 18 20 20 20 18 21 20 20 20 21 21 21 21 20 13 16 14 18 19 19 19 19 19 19 19 18 17 16 14 13 13 14 14 14 15 16 15 16 17 17 17 18 17 17 17
13 17 18 18 19 20 19 17 19 19 19 19 19 20 20 21 18 16 18 17 17 17 18 19 18 16 16 16 16 15 15 15 13 13 13 13 14 14 15 15 15 16 16 16 17 18 17 17 17
17 18 17 18 18 18 18 17 17 18 19 20 18 18 19 19 18 17 17 17 17 16 17 17 17 17 16 13 13 13 12 11 11 11 12 12 13 14 14 15 15 14 16 17 18 18 18 18 18
17 17 19 18 19 18 18 17 17 17 18 20 18 17 15 16 16 14 17 17 17 15 14 14 15 15 14 14 12 9 9 9 9 9 10 10 11 13 14 14 13 14 16 18 18 19 19 19 19
18 17 18 17 16 16 16 17 17 18 18 19 19 16 13 16 15 16 17 17 17 14 12 11 12 12 12 12 11 10 8 7 7 8 8 9 10 12 13 13 15 15 17 19 19 19 20 20 20
17 17 17 16 15 15 16 16 16 17 18 18 18 20 15 17 15 15 15 16 16 14 12 11 10 10 9 9 10 9 8 7 6 6 7 7 9 11 11 13 14 16 17 19 20 20 20 20 20
17 17 15 14 14 14 14 15 16 17 18 17 15 17 15 20 18 14 15 17 17 15 12 10 8 8 8 7 6 5 5 5 4 4 5 6 7 10 12 14 14 16 18 19 20 20 20 20 19
17 16 15 14 13 13 14 15 15 16 16 13 14 12 11 18 23 18 18 19 19 18 14 11 8 6 6 4 3 1 1 2 3 5 7 5 7 7 8 12 15 16 17 18 19 19 20 20 19
16 17 15 12 12 12 14 15 14 15 14 13 13 13 19 26 21 19 20 22 23 23 22 18 11 7 4 2 2 2 1 3 5 7 8 10 14 11 8 11 13 16 17 17 18 18 19 19 19
17 17 14 12 12 12 15 17 18 18 20 17 19 21 26 24 23 22 23 25 26 27 26 24 22 14 8 7 8 7 7 8 9 10 11 13 13 11 10 12 15 16 17 17 16 18 18 20 20
16 17 14 13 11 14 16 18 16 20 20 17 20 23 24 24 24 23 24 24 25 26 26 27 27 24 12 10 9 10 10 11 13 16 15 17 17 16 14 14 16 16 16 17 17 18 19 20 20
17 14 13 15 14 16 17 17 17 15 15 17 19 19 21 24 24 24 24 26 27 27 27 28 28 27 19 11 10 11 12 12 12 14 14 15 15 15 16 15 17 17 18 18 19 20 20 21 21
15 17 17 17 16 14 16 12 16 5 13 15 18 21 23 24 25 24 25 25 27 27 28 29 29 27 24 12 11 12 14 16 16 16 15 16 14 13 13 15 17 19 19 20 20 21 22 22 22
18 20 21 20 16 16 12 15 16 15 13 16 19 22 23 25 27 26 27 27 27 28 29 30 29 27 24 13 11 12 15 17 18 19 19 19 17 17 16 15 16 18 19 21 22 22 23 24 25
21 25 28 21 18 14 13 15 10 9 12 16 19 21 23 25 26 27 27 26 26 26 27 28 28 26 21 14 12 12 14 17 19 21 21 21 19 18 18 18 19 19 19 21 22 23 23 24 25
24 24 26 19 15 16 13 14 17 9 13 18 19 21 22 25 26 27 26 25 26 27 27 25 25 23 20 16 13 13 15 16 18 20 20 21 21 21 21 22 24 24 23 22 22 23 26 26 27
23 24 22 25 18 17 12 15 16 14 19 20 20 21 21 23 24 25 25 25 25 25 24 24 24 22 19 17 15 15 15 17 19 19 21 22 22 22 21 22 23 24 24 25 25 25 26 28 29
24 24 23 21 21 17 19 15 16 20 23 20 17 18 19 21 23 24 24 24 24 24 23 22 21 20 19 17 17 16 17 18 19 21 21 22 23 23 22 22 23 23 23 24 23 25 26 29 31
22 24 24 23 22 23 20 19 19 27 21 17 15 15 14 16 18 20 22 22 23 23 22 21 20 19 17 17 16 16 17 18 19 20 22 23 23 23 23 22 23 24 23 24 25 26 28 29 31
24 28 28 29 26 24 28 26 25 23 21 17 11 9 10 12 16 19 20 21 21 22 22 21 20 19 18 16 15 16 16 18 19 20 22 23 23 24 24 24 24 24 24 26 26 27 28 28 30
24 24 27 29 27 26 31 33 20 22 18 14 9 8 8 9 11 15 17 18 20 20 21 20 20 19 18 17 15 15 16 18 20 22 23 24 24 24 25 25 25 26 26 27 28 29 29 31 29
27 20 22 26 29 32 22 34 22 15 13 10 6 5 8 10 10 11 12 14 17 19 19 19 19 18 18 18 17 17 17 18 19 20 21 23 24 25 26 26 27 27 28 28 29 29 30 30 33
25 19 21 23 25 28 24 29 25 16 14 10 8 9 9 10 9 9 11 13 14 15 16 17 17 18 18 17 17 17 18 18 19 20 22 24 25 27 27 28 28 29 30 30 30 31 32 32 33
15 20 22 22 23 34 24 24 31 21 16 16 11 9 8 7 9 10 11 12 13 14 14 15 15 16 17 17 18 18 18 19 21 23 25 27 28 29 30 30 30 30 31 33 33 32 33 34 33
15 18 28 30 28 34 25 24 29 21 20 20 12 9 8 9 10 10 13 12 12 12 13 14 15 16 16 17 18 19 19 20 23 25 26 28 30 31 32 32 32 33 33 34 35 35 35 36 36
16 18 23 31 28 31 24 28 25 21 21 20 15 10 9 9 9 12 12 11 12 12 12 13 14 16 17 19 20 20 21 22 24 26 28 29 31 32 33 33 34 35 36 37 37 38 38 38 39
21 24 20 29 29 37 32 32 27 22 23 19 13 10 11 11 12 12 12 12 12 13 13 14 16 18 19 20 20 21 22 24 26 27 29 31 32 33 34 35 36 37 38 39 40 41 42 42 43
22 14 25 25 38 41 36 37 33 29 24 20 17 14 12 13 13 12 13 14 13 14 16 17 18 19 19 20 21 23 24 26 27 29 30 32 32 34 35 36 37 39 40 41 42 44 45 47 46
23 26 25 25 30 41 51 42 24 26 24 21 19 15 13 12 13 14 14 15 16 18 19 20 21 20 21 21 22 23 24 26 27 28 30 31 32 34 36 38 40 41 42 43 45 46 47 50 50
22 25 25 35 38 35 39 49 28 29 23 22 19 14 14 15 16 16 18 19 21 22 22 22 21 21 20 20 21 22 24 25 28 30 31 33 35 36 37 39 41 42 44 45 47 50 50 52 53
Wind_Direction
180 134 85 65 62 55 62 64 72 57 58 59 60 56 55 62 56 64 108 116 117 107 123 125 126 125 124 121 120 116 109 95 64 42 36 32 25 16 7 6 33 15 11 6 360 352 347 341 341
162 84 57 57 56 55 65 71 69 64 57 56 56 47 32 36 67 94 68 95 89 102 116 128 128 122 123 122 117 111 109 98 79 57 37 19 8 7 1 4 14 13 16 13 356 349 340 334 334
75 48 52 48 48 53 62 75 76 74 68 55 60 51 42 31 59 64 71 76 70 92 111 126 134 132 128 119 113 109 101 86 74 65 49 24 17 10 13 4 355 5 357 346 338 335 329 324 322
57 43 41 35 42 52 55 63 80 73 72 53 65 69 78 68 55 95 69 65 59 70 98 117 132 134 133 131 120 103 91 77 67 58 53 42 25 5 3 5 13 2 347 339 327 320 318 319 320
38 37 29 35 42 53 58 60 65 59 54 39 39 61 78 55 66 53 48 50 53 65 82 100 123 129 134 135 132 122 108 79 54 40 45 39 23 12 7 359 342 337 338 332 327 320 317 315 318
24 31 25 33 43 49 58 57 51 43 41 35 36 14 47 36 49 45 46 44 48 64 78 87 115 124 129 136 138 136 129 115 94 60 31 20 10 2 360 354 351 333 334 323 320 321 321 320 319
19 17 27 36 42 45 53 47 36 31 25 37 49 34 48 9 13 32 28 21 25 41 61 68 86 124 132 136 137 134 128 116 95 73 61 33 9 353 342 338 338 334 327 329 324 323 323 322 323
17 21 21 29 32 38 38 37 40 29 32 44 43 53 54 10 338 3 359 358 359 4 18 36 57 91 134 126 139 134 30 23 15 356 352 12 0 360 356 340 334 332 330 330 327 327 325 324 323
16 7 11 23 33 32 25 20 32 25 31 32 42 37 4 316 354 359 344 336 328 329 330 339 2 18 36 117 136 161 298 319 326 331 330 331 325 333 339 338 335 331 328 329 332 331 326 326 322
1 360 8 21 22 20 10 5 2 2 359 10 9 358 335 343 340 345 340 330 321 312 311 316 320 333 339 336 331 326 321 318 315 315 316 316 319 325 325 324 325 326 329 332 333 330 330 324 321
359 353 9 8 15 3 356 353 4 354 356 11 360 353 354 352 353 349 344 342 335 330 324 314 309 311 325 324 322 322 318 314 311 310 309 308 310 312 317 316 316 319 324 325 327 328 327 324 322
346 358 2 356 356 351 350 352 354 358 6 4 7 9 1 353 351 350 347 339 330 328 326 320 318 313 314 316 317 317 317 317 314 312 311 310 310 311 310 310 310 311 314 316 319 319 319 318 318
345 343 344 344 344 346 343 350 348 357 1 8 5 356 350 348 347 350 348 345 337 335 326 322 320 319 314 309 310 316 317 316 316 313 309 309 309 309 311 311 309 307 309 309 312 313 312 312 312
339 334 331 334 339 340 339 343 350 2 19 5 355 350 349 348 343 343 342 341 338 336 331 325 324 321 320 321 313 315 317 318 318 317 313 309 304 303 304 307 312 308 307 308 307 308 309 308 307
330 321 318 328 332 339 355 346 358 6 4 358 352 347 345 346 346 345 345 345 343 343 341 337 330 329 337 341 333 328 325 323 320 317 314 313 311 309 307 305 306 307 308 308 308 307 308 307 307
321 325 321 338 346 342 346 339 345 356 352 348 348 346 346 345 346 346 347 348 347 346 347 352 352 351 353 357 355 347 339 339 336 331 329 324 317 312 311 308 307 306 305 306 306 305 302 303 305
321 318 322 320 330 333 333 334 339 345 338 337 339 339 342 345 345 346 347 348 347 350 355 359 3 8 11 12 11 6 360 350 343 342 338 334 332 327 322 318 316 315 312 310 306 305 305 302 303
314 314 317 321 328 328 322 315 323 325 325 327 332 336 338 339 339 344 348 350 351 351 353 358 5 10 16 21 17 10 7 2 356 348 346 345 338 336 334 331 329 325 321 317 316 310 308 304 304
315 311 312 319 321 319 314 311 312 315 324 328 331 335 345 353 353 353 352 352 355 357 359 1 3 1 11 11 6 3 359 3 1 360 355 351 349 347 342 340 337 333 331 324 320 313 311 309 309
308 304 306 309 313 314 312 311 314 317 319 322 325 339 349 359 355 354 356 356 355 354 358 0 4 9 10 14 14 10 9 6 4 359 358 356 352 349 348 345 343 342 335 332 328 324 318 315 315
300 299 304 306 313 316 315 311 311 321 326 337 343 349 356 358 360 357 2 7 6 4 359 4 8 10 13 19 24 17 8 2 355 352 354 354 353 350 349 345 343 338 338 333 330 327 323 318 319
296 304 305 306 309 308 324 314 324 335 333 337 339 336 337 341 356 9 14 10 6 360 359 3 8 12 14 15 13 11 6 0 357 356 355 352 353 351 349 345 342 340 336 332 330 329 326 322 317
302 314 311 311 309 309 313 314 317 323 320 315 322 328 334 340 349 360 3 5 1 1 360 1 6 9 7 7 6 2 359 355 352 351 350 348 346 345 343 342 341 340 338 336 334 330 328 324 318
314 316 316 316 314 303 305 302 311 318 322 325 319 318 321 326 333 338 350 352 352 355 359 359 0 3 360 359 357 354 350 345 340 338 336 336 336 337 337 336 336 335 334 333 331 331 330 327 325
307 308 304 304 303 302 316 308 306 319 328 331 323 317 315 319 322 327 333 336 341 347 349 350 351 352 354 353 350 348 345 341 337 336 333 331 331 331 332 332 331 331 330 330 329 329 327 325 323
292 296 300 305 308 311 320 309 318 326 324 324 320 313 310 309 313 314 320 325 328 331 335 338 340 341 342 341 339 339 337 336 335 334 332 331 329 329 329 329 331 329 327 325 325 324 324 322 320
297 290 300 301 307 305 306 309 315 320 322 329 328 311 303 301 304 306 310 314 318 322 323 326 327 328 329 331 332 333 333 331 332 332 332 330 329 328 328 328 327 326 325 324 323 321 320 319 318
292 303 298 299 299 299 304 307 307 313 314 321 316 306 300 300 299 300 302 306 312 314 316 318 319 320 323 326 327 327 329 329 331 331 330 330 329 329 328 327 327 326 325 324 322 320 318 316 316
291 290 298 300 294 297 299 305 319 320 319 316 312 305 299 297 296 295 296 300 304 307 308 309 311 312 315 319 322 325 327 330 332 332 331 330 329 328 326 325 324 323 322 321 320 318 317 315 313
291 290 285 287 293 296 297 295 314 317 314 312 310 304 301 298 296 294 293 297 300 300 302 303 306 309 313 317 319 322 324 326 327 328 328 328 327 327 325 325 323 322 321 320 319 315 315 313 311